Location: Unspecified
(29.9680°N, 0.0000°E)
Time: 22:45:38
(UTC+00:00)

A-11 Canister half - Pass Details

Date: 22 June 2019
Orbit: 1527 x 1682 km, 47.3° (Epoch: 13 October)

Event Time Altitude Azimuth Distance (km) Brightness Sun altitude
Rises 13:11:44 0° 295° (WNW) 4,692 11.7 73.1°
Reaches altitude 10° 13:15:33 10° 282° (WNW) 3,721 11.4 72.4°
Maximum altitude 13:22:27 23° 234° (SW) 2,837 11.1 70.9°
Drops below altitude 10° 13:29:30 10° 186° (S) 3,791 11.3 69.4°
Sets 13:33:29 0° 173° (S) 4,800 11.6 68.6°
